1514232000.75,65463,8.63,73658.8,-4.93,-5.97,-5.89,0,*53
1514232002.0,65464,8.63,73656.5,-4.93,-5.97,-5.89,0,*54
1514232003.28,65465,8.63,73652.0,-4.93,-5.89,-5.89,0,*5A
1514232004.53,65466,8.63,73650.8,-4.93,-5.97,-5.89,0,*56
1514232005.78,65467,8.63,73654.5,-4.93,-5.89,-5.97,0,*57
1514232007.05,65468,8.63,73654.0,-4.93,-5.89,-5.89,0,*57
1514232008.27,65469,8.63,73656.8,-4.93,-5.97,-5.97,0,*56
1514232009.49,65470,8.63,73664.3,-4.93,-5.97,-5.97,0,*5E
1514232010.71,65471,8.63,73668.3,-4.93,-5.97,-5.97,0,*5F
1514232011.91,65472,8.63,73664.0,-4.91,-5.97,-5.97,0,*5E
1514232013.1,65473,8.63,73668.5,-4.95,-6.01,-6.01,0,*5B
1514232014.32,65474,8.63,73676.0,-4.95,-6.01,-5.93,0,*54
1514232015.51,65475,8.63,73678.5,-4.95,-6.01,-6.01,0,*5D
1514232016.76,65476,8.63,73678.8,-4.97,-6.01,-5.93,0,*54
1514232017.95,65477,8.63,73678.8,-4.95,-6.01,-6.01,0,*5F
1514232019.14,65478,8.63,73678.0,-4.95,-6.01,-6.01,0,*50
1514232020.39,65479,8.69,73678.0,-4.95,-5.93,-5.93,0,*51
1514232021.61,65480,8.63,73668.8,-4.95,-5.93,-6.01,0,*5F
1514232022.83,65481,8.63,73668.5,-4.93,-5.97,-5.97,0,*50
1514232024.05,65482,8.63,73664.8,-4.95,-6.05,-5.93,0,*59
1514232025.24,65483,8.69,73668.0,-4.95,-6.01,-6.01,0,*54
1514232026.46,65484,8.63,73668.8,-4.95,-5.93,-6.01,0,*5B
1514232027.65,65485,8.63,73666.8,-4.95,-6.01,-6.01,0,*52
1514232028.84,65486,8.63,73660.8,-4.95,-6.01,-6.01,0,*51
1514232030.03,65487,8.63,73670.0,-4.95,-6.01,-6.01,0,*50
1514232031.22,65488,8.63,73674.0,-4.95,-6.05,-6.01,0,*5B
1514232032.41,65489,8.69,73674.5,-4.95,-6.01,-6.01,0,*5E
1514232033.6,65490,8.63,73676.5,-4.95,-6.01,-6.01,0,*56
1514232034.79,65491,8.63,73684.8,-4.95,-6.05,-6.01,0,*53
1514232035.98,65492,8.63,73684.5,-4.95,-6.01,-6.01,0,*54
1514232037.17,65493,8.63,73676.3,-4.95,-6.05,-6.05,0,*55
1514232038.36,65494,8.63,73662.5,-4.95,-6.05,-6.05,0,*52
1514232039.58,65495,8.63,73646.5,-4.95,-5.93,-6.01,0,*5B
1514232040.77,65496,8.63,73632.0,-4.95,-6.01,-6.01,0,*50
1514232041.96,65497,8.63,73636.8,-4.95,-6.01,-6.01,0,*51
1514232043.15,65498,8.63,73650.3,-4.95,-6.01,-6.01,0,*5E
1514232044.34,65499,8.69,73656.8,-4.95,-6.01,-6.05,0,*5B
1514232045.53,65500,8.63,73666.3,-4.95,-6.01,-6.01,0,*5E
1514232046.76,65501,8.63,73670.3,-4.97,-6.01,-6.01,0,*5D
1514232047.94,65502,8.63,73674.5,-4.95,-6.05,-6.05,0,*5C
1514232049.16,65503,8.63,73680.0,-4.97,-6.05,-6.13,0,*58
1514232050.38,65504,8.63,73680.0,-4.97,-6.05,-6.05,0,*58
1514232051.59,65505,8.69,73682.8,-4.97,-6.05,-6.01,0,*5D
1514232052.78,65506,8.63,73678.3,-4.95,-6.05,-6.01,0,*5C
1514232053.97,65507,8.63,73672.8,-4.95,-6.01,-6.01,0,*59
1514232055.16,65508,8.69,73676.5,-4.95,-6.05,-6.01,0,*52
1514232056.35,65509,8.63,73674.5,-4.95,-6.01,-6.01,0,*57
1514232057.57,65510,8.63,73670.8,-4.97,-6.05,-6.01,0,*59
1514232058.76,65511,8.63,73678.5,-4.95,-6.01,-6.01,0,*5E
1514232059.98,65512,8.69,73676.8,-4.97,-6.01,-6.01,0,*5F
1514232061.2,65513,8.69,73680.0,-4.97,-6.05,-6.05,0,*5E
1514232062.42,65514,8.63,73684.0,-4.95,-5.93,-6.05,0,*57
1514232063.64,65515,8.63,73674.3,-4.97,-6.01,-6.01,0,*58
1514232064.83,65516,8.63,73670.3,-4.95,-6.05,-6.01,0,*5D
1514232066.05,65517,8.69,73676.3,-4.97,-6.05,-6.01,0,*5E
1514232067.24,65518,8.63,73678.0,-4.95,-6.13,-6.01,0,*54
1514232068.43,65519,8.63,73676.5,-4.95,-6.05,-6.01,0,*52
1514232069.65,65520,8.63,73682.8,-4.97,-6.01,-6.01,0,*5E
1514232070.87,65521,8.63,73680.8,-4.97,-6.05,-6.01,0,*5B
1514232072.08,65522,8.69,73686.5,-4.97,-6.05,-6.01,0,*58
1514232073.28,65523,8.63,73688.3,-4.95,-6.13,-6.01,0,*5C
1514232074.5,65524,8.63,73682.5,-4.97,-6.01,-6.01,0,*5A
1514232075.69,65525,8.63,73682.5,-4.95,-6.01,-6.05,0,*5D
1514232076.94,65526,8.63,73686.0,-4.97,-5.93,-6.05,0,*54
1514232078.12,65527,8.63,73680.8,-4.95,-6.05,-6.05,0,*5B
1514232079.34,65528,8.63,73690.3,-4.97,-6.05,-6.05,0,*56
1514232080.56,65529,8.63,73690.8,-4.97,-6.01,-6.01,0,*57
1514232081.78,65530,8.63,73678.5,-4.97,-6.01,-6.05,0,*5B
1514232083.0,65531,8.69,73680.3,-4.97,-6.05,-6.05,0,*5E
1514232084.22,65532,8.63,73674.8,-4.97,-6.05,-6.05,0,*5D
1514232085.44,65533,8.63,73676.8,-4.97,-6.05,-6.01,0,*58
1514232086.65,65534,8.69,73680.5,-4.97,-6.05,-6.05,0,*5B
1514232087.87,65535,8.63,73676.3,-4.97,-6.13,-6.01,0,*59
1514232089.07,0,8.63,73676.8,-4.97,-6.01,-6.01,0,*5A
1514232090.27,1,8.63,73666.8,-4.97,-6.13,-6.05,0,*5C
1514232091.47,2,8.63,73680.0,-4.97,-6.05,-6.13,0,*5F
1514232092.66,3,8.63,73678.0,-4.97,-6.05,-6.05,0,*59
1514232093.86,4,8.63,73670.8,-4.97,-6.13,-6.01,0,*5D
1514232095.06,5,8.63,73676.0,-4.97,-6.13,-6.13,0,*5F
1514232096.25,6,8.69,73674.0,-4.97,-6.05,-6.05,0,*5C
1514232097.45,7,8.63,73672.8,-4.97,-6.05,-6.05,0,*5D
1514232098.67,8,8.63,73672.8,-4.97,-6.05,-5.93,0,*5E
1514232099.87,9,8.69,73672.3,-4.97,-6.05,-6.01,0,*57
1514232101.04,10,8.63,73670.3,-5.01,-6.05,-6.09,0,*69
1514232102.21,11,8.63,73666.8,-5.01,-6.09,-6.05,0,*68
1514232103.41,12,8.63,73662.8,-4.97,-6.05,-6.05,0,*69
1514232104.61,13,8.63,73670.8,-4.97,-6.05,-6.01,0,*6C
1514232105.81,14,8.63,73664.8,-4.97,-6.05,-6.01,0,*6B
1514232107.05,15,8.63,73676.0,-4.97,-6.01,-5.93,0,*66
1514232108.22,16,8.63,73672.3,-5.01,-6.09,-6.05,0,*6F
1514232109.42,17,8.69,73666.8,-5.01,-6.19,-6.05,0,*6F
1514232110.59,18,8.63,73658.8,-5.01,-6.05,-6.05,0,*6D
1514232111.77,19,8.69,73658.5,-5.01,-6.09,-6.05,0,*60
1514232112.94,20,8.63,73652.0,-5.01,-6.09,-5.97,0,*62
1514232114.14,21,8.69,73652.5,-5.01,-6.05,-6.19,0,*6A
1514232115.31,22,8.69,73664.8,-5.01,-6.05,-6.09,0,*68
1514232116.49,23,8.69,73666.8,-5.01,-6.09,-6.09,0,*65
1514232117.67,24,8.63,73682.8,-5.01,-6.09,-6.09,0,*62
1514232118.87,25,8.63,73686.0,-4.97,-6.01,-6.05,0,*69
1514232120.07,26,8.63,73682.8,-4.97,-6.05,-6.01,0,*6A
1514232121.3,27,8.69,73684.8,-4.97,-5.93,-6.01,0,*67
1514232122.5,28,8.63,73676.5,-4.97,-6.05,-6.01,0,*64
1514232123.74,29,8.63,73666.3,-4.97,-6.13,-5.93,0,*6A
1514232124.94,30,8.69,73668.5,-4.97,-6.01,-6.05,0,*6D
1514232126.11,31,8.69,73680.0,-5.01,-6.05,-6.05,0,*66
1514232127.31,32,8.63,73674.8,-4.97,-6.05,-6.05,0,*6B
1514232128.52,33,8.63,73678.0,-4.97,-6.13,-6.01,0,*69
1514232129.72,34,8.63,73676.8,-4.97,-6.01,-6.01,0,*6D
1514232130.92,35,8.69,73678.8,-5.03,-6.05,-6.05,0,*60
1514232132.09,36,8.63,73680.0,-5.01,-6.09,-6.05,0,*6D
1514232133.26,37,8.69,73680.5,-5.01,-6.05,-6.05,0,*60
1514232134.43,38,8.63,73678.8,-5.01,-6.05,-6.05,0,*6F
1514232135.6,39,8.63,73678.0,-5.01,-6.05,-6.05,0,*6E
1514232136.77,40,8.63,73672.8,-5.01,-6.05,-5.97,0,*68
1514232137.97,41,8.63,73660.8,-5.03,-6.09,-6.05,0,*6F
1514232139.14,42,8.63,73674.3,-5.01,-6.05,-6.05,0,*62
1514232140.31,43,8.69,73680.5,-5.01,-5.97,-6.05,0,*6B
1514232141.48,44,8.63,73660.0,-5.01,-6.05,-6.05,0,*64
1514232142.68,45,8.69,73648.8,-5.03,-5.97,-6.05,0,*6F
1514232143.88,46,8.69,73666.5,-5.03,-6.05,-6.05,0,*64
1514232145.05,47,8.69,73668.3,-5.01,-5.97,-6.05,0,*6F
1514232146.22,48,8.63,73678.8,-5.01,-6.05,-5.97,0,*60
1514232147.39,49,8.69,73670.3,-5.01,-5.97,-6.05,0,*61
1514232148.56,50,8.69,73672.8,-5.01,-6.05,-5.97,0,*69
1514232149.73,51,8.63,73662.3,-5.01,-6.05,-6.05,0,*60
1514232150.9,52,8.69,73672.3,-5.01,-6.05,-6.05,0,*63
1514232152.08,53,8.69,73666.8,-5.01,-6.09,-5.97,0,*66
1514232153.25,54,8.69,73672.8,-5.01,-5.97,-6.05,0,*6D
1514232154.42,55,8.69,73666.5,-5.01,-6.05,-5.97,0,*6C
1514232155.59,56,8.63,73672.5,-5.01,-5.97,-5.97,0,*67
1514232156.77,57,8.63,73660.5,-5.01,-5.97,-5.97,0,*66
1514232157.94,58,8.63,73672.5,-5.01,-5.97,-6.05,0,*61
1514232159.11,59,8.69,73682.3,-5.01,-5.97,-5.97,0,*68
1514232160.28,60,8.69,73676.5,-5.01,-6.05,-5.97,0,*6A
1514232161.46,61,8.63,73662.3,-5.01,-5.97,-6.05,0,*6B
1514232162.65,62,8.63,73680.0,-5.03,-6.05,-5.97,0,*6A
1514232163.85,63,8.63,73666.8,-5.03,-6.05,-5.97,0,*6B
1514232165.02,64,8.63,73670.3,-5.01,-5.97,-5.97,0,*66
1514232166.22,65,8.69,73670.0,-5.01,-6.05,-5.85,0,*6C
1514232167.39,66,8.69,73670.0,-5.01,-6.05,-5.97,0,*6C
1514232168.56,67,8.69,73682.5,-5.01,-6.05,-5.97,0,*6D
1514232169.76,68,8.63,73680.5,-5.03,-6.05,-5.97,0,*60
1514232170.93,69,8.69,73676.5,-5.01,-6.05,-5.97,0,*63
1514232172.13,70,8.63,73664.5,-5.03,-5.97,-5.97,0,*61
1514232173.3,71,8.63,73664.5,-5.01,-5.97,-5.97,0,*62
1514232174.47,72,8.63,73684.5,-5.01,-5.97,-5.97,0,*61
1514232175.65,73,8.63,73684.8,-5.01,-5.97,-5.97,0,*60
1514232176.82,74,8.69,73678.0,-5.01,-6.05,-5.97,0,*6F
1514232177.99,75,8.63,73666.3,-5.01,-5.97,-6.05,0,*6E
1514232179.19,76,8.63,73666.3,-5.01,-6.05,-5.93,0,*69
1514232180.36,77,8.63,73658.5,-5.01,-5.97,-5.97,0,*64
1514232181.54,78,8.63,73658.0,-5.01,-5.97,-5.97,0,*6B
1514232182.74,79,8.63,73656.8,-5.01,-6.05,-5.93,0,*66
1514232183.91,80,8.63,73658.5,-5.01,-5.97,-5.97,0,*6C
1514232185.08,81,8.63,73660.5,-5.01,-5.97,-5.97,0,*6D
1514232186.28,82,8.63,73664.0,-5.03,-6.05,-5.97,0,*64
1514232187.45,83,8.63,73674.0,-5.01,-5.97,-5.97,0,*6F
1514232188.65,84,8.63,73680.3,-5.03,-5.97,-5.97,0,*6A
1514232189.82,85,8.63,73690.8,-5.01,-5.97,-5.97,0,*69
1514232191.0,86,8.69,73692.3,-5.01,-5.97,-5.97,0,*6A
1514232192.17,87,8.69,73684.0,-5.01,-5.97,-5.97,0,*6B
1514232193.37,88,8.69,73682.8,-5.03,-5.97,-5.97,0,*66
1514232194.54,89,8.69,73674.0,-5.01,-5.97,-5.97,0,*65
1514232195.71,90,8.69,73670.0,-5.01,-6.05,-5.97,0,*65
1514232196.91,91,8.69,73668.8,-5.01,-5.93,-5.97,0,*68
1514232198.09,92,8.63,73664.3,-5.01,-5.97,-6.05,0,*67
1514232199.29,93,8.69,73664.3,-5.03,-5.97,-5.97,0,*6C
1514232200.46,94,8.69,73664.8,-5.01,-5.97,-5.97,0,*69
1514232201.63,95,8.69,73666.3,-5.01,-5.97,-5.97,0,*68
1514232202.81,96,8.69,73660.5,-5.01,-5.97,-5.97,0,*6B
1514232203.98,97,8.69,73656.8,-5.01,-5.97,-5.97,0,*6A
1514232205.15,98,8.69,73648.3,-5.01,-5.97,-5.97,0,*65
1514232206.32,99,8.63,73652.8,-5.01,-6.05,-5.97,0,*6C
1514232207.5,100,8.69,73662.5,-5.01,-6.05,-5.97,0,*5D
1514232208.68,101,8.69,73672.0,-5.01,-5.97,-5.97,0,*54
1514232209.86,102,8.69,73682.8,-5.01,-5.97,-5.97,0,*57
1514232211.03,103,8.63,73672.3,-5.01,-5.97,-5.97,0,*56
1514232212.24,104,8.63,73682.3,-5.01,-6.05,-5.93,0,*5D
1514232213.42,105,8.69,73668.5,-5.01,-6.05,-6.05,0,*50
1514232214.68,106,8.63,73678.3,-4.97,-5.89,-5.93,0,*56
1514232215.86,107,8.69,73682.8,-5.01,-5.97,-5.97,0,*52
1514232217.09,108,8.63,73688.3,-5.01,-5.93,-5.93,0,*5D
1514232218.33,109,8.63,73684.8,-5.03,-5.93,-5.97,0,*5A
1514232219.53,110,8.69,73684.0,-5.03,-5.97,-5.97,0,*56
1514232220.71,111,8.69,73682.0,-5.01,-5.97,-5.97,0,*55
1514232221.92,112,8.69,73676.3,-5.01,-5.93,-5.97,0,*52
1514232223.16,113,8.69,73670.0,-5.01,-5.93,-5.93,0,*57
1514232224.36,114,8.69,73682.3,-5.01,-6.05,-5.93,0,*5C
1514232225.57,115,8.69,73678.0,-5.01,-5.97,-5.93,0,*55
1514232226.75,116,8.69,73676.5,-5.01,-5.97,-5.97,0,*52
1514232227.93,117,8.69,73672.5,-5.01,-5.97,-6.05,0,*5B
1514232229.14,118,8.69,73668.0,-5.01,-5.97,-5.93,0,*58
1514232230.34,119,8.69,73666.0,-5.01,-5.97,-5.93,0,*59
1514232231.55,120,8.63,73676.0,-5.01,-5.97,-5.93,0,*53
1514232232.73,121,8.69,73678.0,-5.01,-5.97,-5.97,0,*56
1514232233.91,122,8.63,73680.0,-5.01,-5.97,-5.97,0,*55
1514232235.09,123,8.63,73682.8,-5.01,-5.97,-5.97,0,*54
1514232236.3,124,8.63,73684.5,-5.01,-5.97,-5.93,0,*57
1514232237.51,125,8.69,73682.3,-5.01,-5.97,-5.93,0,*56
1514232238.75,126,8.69,73686.3,-5.01,-5.93,-5.85,0,*56
1514232240.01,127,8.63,73682.5,-4.97,-5.81,-5.89,0,*56
1514232241.19,128,8.69,73680.3,-5.01,-5.97,-5.97,0,*5F
1514232242.37,129,8.69,73678.0,-5.01,-5.97,-5.97,0,*5E
1514232243.61,130,8.69,73686.8,-5.03,-5.97,-5.93,0,*50
1514232244.82,131,8.63,73692.3,-5.01,-5.97,-5.85,0,*54
1514232246.05,132,8.69,73696.5,-5.01,-5.93,-5.93,0,*54
1514232247.29,133,8.69,73676.3,-5.01,-5.93,-5.93,0,*55
1514232248.53,134,8.69,73668.5,-5.01,-5.93,-5.93,0,*52
1514232249.77,135,8.69,73672.0,-5.01,-5.93,-5.93,0,*53
1514232251.0,136,8.69,73670.0,-5.01,-5.93,-5.93,0,*50
1514232252.21,137,8.69,73664.0,-5.01,-5.85,-5.97,0,*52
1514232253.39,138,8.63,73660.3,-5.01,-5.97,-5.97,0,*5E
1514232254.63,139,8.69,73662.5,-4.97,-5.93,-6.01,0,*59
1514232255.9,140,8.69,73656.8,-4.97,-5.93,-5.93,0,*5F
1514232257.16,141,8.69,73662.3,-4.97,-5.89,-5.93,0,*55
1514232258.34,142,8.63,73658.8,-5.01,-5.97,-5.97,0,*53
1514232259.55,143,8.69,73662.0,-5.01,-5.93,-5.97,0,*56
1514232260.81,144,8.69,73668.5,-4.97,-5.93,-5.93,0,*5B
1514232262.08,145,8.69,73674.3,-4.97,-5.93,-5.93,0,*5A
1514232263.35,146,8.69,73670.5,-4.97,-5.93,-5.93,0,*59
1514232264.56,147,8.69,73666.8,-5.01,-6.05,-5.93,0,*5A
1514232265.79,148,8.69,73662.8,-5.03,-5.97,-5.93,0,*5F
1514232267.06,149,8.69,73674.5,-4.97,-5.93,-5.93,0,*56
1514232268.23,150,8.69,73682.5,-5.01,-5.97,-5.97,0,*50
1514232269.41,151,8.69,73664.8,-5.01,-5.97,-5.97,0,*51
1514232270.59,152,8.69,73660.8,-5.01,-5.97,-6.05,0,*5A
1514232271.83,153,8.69,73662.5,-4.95,-5.93,-5.93,0,*5F
1514232273.1,154,8.63,73660.0,-4.97,-5.93,-5.93,0,*5A
1514232274.37,155,8.69,73666.5,-4.97,-5.93,-5.93,0,*5B
1514232275.6,156,8.69,73666.0,-4.97,-5.93,-6.01,0,*50
1514232276.87,157,8.69,73670.8,-4.97,-5.93,-5.93,0,*59
1514232278.08,158,8.69,73668.8,-5.01,-6.05,-5.93,0,*54
1514232279.26,159,8.69,73670.5,-5.01,-5.97,-5.97,0,*59
1514232280.43,160,8.69,73668.8,-5.01,-5.97,-6.05,0,*5B
1514232281.61,161,8.69,73666.0,-5.01,-5.97,-5.97,0,*52
1514232282.79,162,8.63,73672.3,-5.01,-5.97,-5.97,0,*51
1514232283.97,163,8.69,73680.3,-5.01,-5.97,-5.97,0,*50
1514232285.15,164,8.69,73686.0,-5.01,-5.97,-5.97,0,*57
1514232286.33,165,8.63,73674.8,-5.01,-6.05,-5.97,0,*5E
1514232287.53,166,8.63,73670.8,-5.01,-5.93,-5.97,0,*51
1514232288.71,167,8.69,73678.3,-5.01,-5.97,-5.97,0,*54
1514232289.89,168,8.69,73674.3,-5.01,-5.97,-5.97,0,*5B
1514232291.1,169,8.69,73680.5,-5.01,-5.97,-5.93,0,*5E
1514232292.27,170,8.69,73680.5,-5.01,-6.05,-5.97,0,*5A
1514232293.51,171,8.63,73672.3,-4.97,-6.01,-5.93,0,*55
1514232294.75,172,8.69,73674.8,-4.97,-6.01,-5.93,0,*56
1514232295.93,173,8.69,73676.3,-5.01,-5.97,-5.97,0,*51
1514232297.11,174,8.69,73662.0,-5.01,-6.05,-5.97,0,*5E
1514232298.31,175,8.63,73674.3,-5.03,-5.97,-6.05,0,*5D
1514232299.49,176,8.69,73674.3,-5.01,-5.97,-6.05,0,*5C
1514232300.67,177,8.69,73670.0,-5.01,-5.97,-5.97,0,*55
1514232301.85,178,8.69,73658.0,-5.01,-5.97,-5.97,0,*5A
1514232303.03,179,8.63,73652.0,-5.01,-5.97,-5.97,0,*5B
1514232304.2,180,8.69,73664.5,-5.01,-6.05,-5.97,0,*55
1514232305.38,181,8.69,73672.5,-5.01,-5.97,-6.05,0,*54
1514232306.56,182,8.69,73670.0,-5.01,-6.05,-5.97,0,*57
1514232307.73,183,8.69,73676.0,-5.01,-5.97,-5.97,0,*5E
1514232308.91,184,8.69,73672.3,-5.01,-5.97,-5.97,0,*59
1514232310.09,185,8.69,73674.5,-5.01,-5.97,-5.97,0,*58
1514232311.27,186,8.69,73678.3,-5.01,-5.97,-6.05,0,*53
1514232312.5,187,8.69,73678.0,-5.03,-6.05,-5.93,0,*54
1514232313.68,188,8.69,73670.8,-5.01,-5.97,-5.97,0,*55
1514232314.86,189,8.69,73662.3,-5.01,-5.97,-5.97,0,*54
1514232316.04,190,8.69,73660.0,-5.01,-5.97,-5.97,0,*5C
1514232317.3,191,8.69,73668.3,-5.03,-5.93,-5.93,0,*5F
1514232318.51,192,8.69,73660.0,-5.01,-5.97,-5.93,0,*5A
1514232319.72,193,8.69,73650.5,-5.01,-5.97,-5.93,0,*5B
1514232320.89,194,8.69,73648.0,-5.01,-6.05,-5.97,0,*50
1514232322.1,195,8.69,73652.8,-5.01,-5.93,-5.97,0,*5D
1514232323.28,196,8.63,73658.0,-5.01,-5.97,-5.97,0,*5A
1514232324.46,197,8.69,73654.3,-5.01,-5.97,-5.97,0,*5B
1514232325.64,198,8.69,73656.0,-5.01,-5.97,-5.97,0,*54
1514232326.9,199,8.69,73664.5,-4.97,-5.93,-5.93,0,*5B
1514232328.17,200,8.69,73662.3,-4.97,-5.89,-5.89,0,*58
1514232329.38,201,8.69,73668.8,-5.01,-5.97,-5.93,0,*53
1514232330.56,202,8.69,73678.8,-5.01,-6.05,-5.97,0,*5C
1514232331.73,203,8.63,73668.8,-5.01,-5.97,-5.97,0,*55
1514232332.94,204,8.69,73678.8,-5.03,-5.97,-5.97,0,*50
1514232334.12,205,8.69,73680.0,-5.01,-5.97,-5.97,0,*53
1514232335.3,206,8.69,73674.8,-5.01,-5.97,-5.97,0,*50
1514232336.48,207,8.69,73682.8,-5.01,-5.97,-5.97,0,*51
1514232337.68,208,8.69,73686.3,-5.01,-6.05,-5.93,0,*52
1514232338.95,209,8.69,73682.8,-4.97,-5.93,-5.93,0,*51
1514232340.22,210,8.69,73682.5,-4.97,-5.93,-5.93,0,*59
1514232341.4,211,8.63,73684.3,-5.01,-5.97,-5.97,0,*56
1514232342.64,212,8.69,73690.3,-4.97,-6.01,-5.89,0,*58
1514232343.9,213,8.69,73682.0,-4.97,-5.93,-5.93,0,*5A
1514232345.15,214,8.69,73676.8,-4.97,-6.01,-5.89,0,*5E
1514232346.32,215,8.69,73652.5,-5.01,-6.05,-5.97,0,*5A
1514232347.5,216,8.63,73640.5,-5.01,-5.97,-5.97,0,*51
1514232348.68,217,8.63,73650.5,-5.01,-5.97,-5.97,0,*50
1514232349.85,218,8.63,73644.0,-5.01,-6.05,-6.05,0,*5F
1514232351.06,219,8.63,73650.0,-5.01,-5.97,-5.93,0,*5A
1514232352.24,220,8.63,73662.5,-5.01,-5.97,-5.97,0,*54
1514232353.45,221,8.69,73662.0,-5.03,-5.97,-5.97,0,*57
1514232354.62,222,8.69,73682.3,-5.01,-5.97,-5.97,0,*56
1514232355.8,223,8.69,73682.8,-5.01,-5.97,-5.97,0,*57
1514232356.98,224,8.69,73684.3,-5.01,-5.97,-5.97,0,*50
1514232358.19,225,8.69,73684.3,-5.01,-5.93,-5.97,0,*55
1514232359.37,226,8.69,73686.8,-5.01,-5.97,-5.97,0,*52
1514232360.55,227,8.69,73668.8,-5.01,-5.97,-5.97,0,*53
1514232361.76,228,8.69,73672.5,-5.01,-5.97,-5.93,0,*58
1514232362.99,229,8.69,73676.3,-5.01,-5.93,-5.93,0,*5D
1514232364.2,230,8.69,73676.8,-5.01,-5.93,-5.97,0,*51
1514232365.43,231,8.69,73670.5,-5.01,-5.89,-5.93,0,*5F
1514232366.64,232,8.69,73676.5,-5.01,-5.93,-6.05,0,*5B
1514232367.85,233,8.69,73672.8,-5.01,-5.97,-5.93,0,*52
1514232369.06,234,8.69,73666.5,-5.01,-5.97,-5.93,0,*55
1514232370.33,235,8.63,73664.3,-4.97,-5.93,-5.89,0,*55
1514232371.59,236,8.69,73666.0,-4.97,-5.93,-5.93,0,*5D
1514232372.77,237,8.69,73676.5,-5.01,-5.97,-5.97,0,*52
1514232373.98,238,8.69,73676.5,-5.01,-5.97,-5.93,0,*59
1514232375.22,239,8.69,73670.3,-5.01,-5.93,-5.93,0,*5C
1514232376.42,240,8.69,73672.8,-5.01,-6.05,-5.93,0,*5E
1514232377.66,241,8.69,73678.3,-5.01,-5.93,-5.93,0,*53
1514232378.93,242,8.69,73676.5,-4.97,-5.93,-5.81,0,*5D
1514232380.2,243,8.69,73676.0,-4.97,-5.93,-5.93,0,*5F
1514232381.46,244,8.63,73672.0,-4.97,-5.89,-5.81,0,*50
1514232382.73,245,8.63,73678.5,-4.97,-5.89,-5.89,0,*59
1514232384.0,246,8.69,73682.0,-4.97,-5.93,-5.89,0,*51
1514232385.26,247,8.69,73672.8,-4.97,-5.93,-5.81,0,*58
1514232386.53,248,8.69,73676.5,-4.97,-5.89,-5.89,0,*54
1514232387.8,249,8.69,73672.8,-4.97,-5.81,-5.89,0,*5D
1514232389.04,250,8.69,73686.3,-5.01,-5.93,-5.93,0,*53
1514232390.27,251,8.63,73680.5,-5.01,-5.85,-5.93,0,*55
1514232391.54,252,8.63,73668.5,-4.97,-5.81,-5.89,0,*57
1514232392.81,253,8.69,73682.0,-4.97,-5.89,-5.89,0,*5E
1514232394.07,254,8.63,73682.0,-4.97,-5.89,-5.81,0,*51
1514232395.34,255,8.63,73676.8,-4.97,-5.81,-5.81,0,*58
1514232396.6,256,8.69,73672.5,-4.97,-5.89,-5.89,0,*5B
1514232397.84,257,8.63,73676.0,-4.95,-5.89,-5.89,0,*58
1514232399.08,258,8.63,73684.0,-5.01,-5.85,-5.85,0,*5B
1514232400.32,259,8.69,73686.0,-5.01,-5.85,-5.85,0,*5A
1514232401.56,260,8.69,73680.0,-5.01,-5.85,-5.85,0,*50
1514232402.83,261,8.63,73674.3,-4.97,-5.89,-5.89,0,*5F
1514232404.06,262,8.63,73676.0,-4.95,-5.89,-5.81,0,*56
1514232405.33,263,8.69,73682.8,-4.97,-5.81,-5.89,0,*55
1514232406.56,264,8.69,73686.8,-4.95,-5.81,-5.81,0,*58
1514232407.83,265,8.63,73682.5,-4.97,-5.93,-5.89,0,*50
1514232409.07,266,8.69,73688.8,-5.01,-5.85,-5.85,0,*56
1514232410.32,267,8.69,73684.3,-5.01,-5.85,-5.85,0,*57
1514232411.55,268,8.69,73682.3,-4.95,-5.89,-5.81,0,*5C
1514232412.82,269,8.69,73686.3,-4.97,-5.81,-5.89,0,*5F
1514232414.08,270,8.69,73672.8,-4.97,-5.89,-5.89,0,*5F
1514232415.35,271,8.69,73674.5,-4.97,-5.81,-5.81,0,*5E
1514232416.59,272,8.69,73670.8,-4.95,-5.89,-5.89,0,*5F
1514232417.85,273,8.69,73670.0,-4.97,-5.89,-5.81,0,*54
1514232419.11,274,8.69,73672.8,-4.97,-5.81,-5.81,0,*5B
1514232420.38,275,8.69,73658.0,-4.97,-5.81,-5.81,0,*5A
1514232421.65,276,8.69,73674.8,-4.97,-5.81,-5.89,0,*51
1514232422.91,277,8.69,73672.0,-4.97,-5.81,-5.89,0,*50
1514232424.15,278,8.69,73676.3,-4.95,-5.81,-5.81,0,*55
1514232425.38,279,8.63,73682.8,-4.95,-5.81,-5.81,0,*54
1514232426.65,280,8.69,73692.3,-4.97,-5.81,-5.81,0,*50
1514232427.88,281,8.63,73690.0,-4.95,-5.89,-5.81,0,*5B
1514232429.12,282,8.63,73694.5,-4.95,-5.89,-5.81,0,*58
1514232430.38,283,8.69,73692.8,-4.97,-5.81,-5.89,0,*5B
1514232431.65,284,8.63,73682.3,-4.97,-5.81,-5.81,0,*54
1514232432.88,285,8.69,73674.0,-4.95,-5.89,-5.81,0,*5F
1514232434.15,286,8.63,73674.8,-4.97,-5.81,-5.81,0,*56
1514232435.38,287,8.69,73668.0,-4.95,-5.81,-5.81,0,*55
1514232436.62,288,8.69,73682.5,-4.95,-5.89,-5.89,0,*5A
1514232437.88,289,8.63,73684.0,-4.97,-5.81,-5.81,0,*59
1514232439.12,290,8.69,73688.0,-4.95,-5.81,-5.89,0,*5B
1514232440.39,291,8.69,73690.3,-4.97,-5.81,-5.89,0,*58
1514232441.62,292,8.63,73692.0,-4.95,-5.81,-5.81,0,*51
1514232442.89,293,8.69,73700.5,-4.97,-5.89,-5.89,0,*52
1514232444.12,294,8.69,73694.8,-4.95,-5.89,-5.81,0,*5F
1514232445.36,295,8.69,73694.3,-4.95,-5.89,-5.89,0,*56
1514232446.59,296,8.69,73692.0,-4.95,-5.81,-5.81,0,*55
1514232447.86,297,8.69,73690.0,-4.97,-5.81,-5.89,0,*5E
1514232449.09,298,8.69,73694.0,-4.95,-5.81,-5.81,0,*5B
1514232450.36,299,8.63,73688.5,-4.97,-5.81,-5.81,0,*58
1514232451.6,300,8.63,73684.3,-4.95,-5.81,-5.81,0,*5B
1514232452.83,301,8.63,73688.8,-4.95,-5.89,-5.81,0,*52
1514232454.06,302,8.69,73684.3,-4.95,-5.81,-5.81,0,*59
1514232455.3,303,8.69,73686.3,-4.95,-5.89,-5.81,0,*50
1514232456.54,304,8.69,73680.0,-4.95,-5.81,-5.89,0,*57
1514232457.8,305,8.63,73672.5,-4.97,-5.81,-5.81,0,*5C
1514232459.03,306,8.63,73672.5,-4.95,-5.89,-5.81,0,*55
1514232460.27,307,8.63,73674.3,-4.95,-5.81,-5.81,0,*5C
1514232461.5,308,8.69,73678.5,-4.95,-5.81,-5.81,0,*53
1514232462.74,309,8.69,73686.0,-4.95,-5.81,-5.89,0,*5A
1514232463.98,310,8.69,73678.3,-4.95,-5.81,-5.89,0,*52
1514232465.21,311,8.69,73682.0,-4.95,-5.89,-5.81,0,*53
1514232466.45,312,8.69,73682.0,-4.95,-5.89,-5.81,0,*50
1514232467.68,313,8.63,73686.0,-4.95,-5.89,-5.81,0,*51
1514232468.91,314,8.63,73678.5,-4.95,-5.81,-5.81,0,*5E
1514232470.15,315,8.63,73686.3,-4.95,-5.89,-5.81,0,*57
1514232471.41,316,8.63,73684.8,-4.93,-5.85,-5.77,0,*57
1514232472.68,317,8.63,73684.5,-4.93,-5.85,-5.85,0,*5B
1514232473.92,318,8.63,73674.0,-4.91,-5.77,-5.77,0,*56
1514232475.15,319,8.69,73660.5,-4.95,-5.81,-5.81,0,*53
1514232476.38,320,8.63,73672.3,-4.95,-5.89,-5.81,0,*51
1514232477.62,321,8.63,73682.8,-4.95,-5.89,-5.81,0,*50
1514232478.88,322,8.63,73682.5,-4.93,-5.85,-5.77,0,*50
1514232480.12,323,8.69,73686.0,-4.91,-5.77,-5.77,0,*5E
1514232481.35,324,8.63,73680.8,-4.95,-5.81,-5.81,0,*5D
1514232482.59,325,8.69,73684.8,-4.95,-5.81,-5.81,0,*5C
1514232483.85,326,8.69,73690.0,-4.93,-5.85,-5.77,0,*54
1514232485.08,327,8.63,73680.3,-4.95,-5.81,-5.81,0,*5E
1514232486.32,328,8.63,73678.5,-4.95,-5.89,-5.89,0,*51
1514232487.58,329,8.63,73680.3,-4.93,-5.77,-5.77,0,*56
1514232488.84,330,8.69,73686.3,-4.93,-5.77,-5.77,0,*5E
1514232490.1,331,8.69,73682.5,-4.93,-5.77,-5.77,0,*5F
1514232491.33,332,8.69,73678.8,-4.95,-5.81,-5.81,0,*5A
1514232492.57,333,8.69,73664.3,-4.95,-5.81,-5.81,0,*5B
1514232493.8,334,8.69,73668.5,-4.95,-5.89,-5.89,0,*5C
1514232495.04,335,8.63,73670.0,-4.95,-5.81,-5.81,0,*5D
1514232496.27,336,8.63,73682.5,-4.95,-5.81,-5.81,0,*5E
1514232497.53,337,8.63,73676.8,-4.93,-5.77,-5.77,0,*59
1514232498.79,338,8.63,73680.0,-4.93,-5.77,-5.77,0,*56
1514232500.06,339,8.63,73678.5,-4.93,-5.85,-5.77,0,*5A
1514232501.32,340,8.63,73682.3,-4.93,-5.77,-5.77,0,*59
1514232502.58,341,8.69,73690.0,-4.93,-5.77,-5.77,0,*58
1514232503.84,342,8.63,73688.3,-4.93,-5.77,-5.77,0,*5B
1514232505.07,343,8.63,73676.0,-4.95,-5.89,-5.81,0,*54
1514232506.3,344,8.69,73682.0,-4.95,-5.89,-5.81,0,*53
1514232507.54,345,8.69,73690.5,-4.95,-5.81,-5.81,0,*5A
1514232508.77,346,8.63,73684.5,-4.95,-5.81,-5.81,0,*59
1514232510.04,347,8.63,73680.0,-4.93,-5.85,-5.77,0,*53
1514232511.31,348,8.63,73686.8,-4.93,-5.85,-5.85,0,*51
1514232512.57,349,8.69,73694.5,-4.93,-5.77,-5.77,0,*50
1514232513.83,350,8.63,73686.5,-4.93,-5.77,-5.77,0,*58
1514232515.09,351,8.63,73688.5,-4.93,-5.85,-5.77,0,*54
1514232516.35,352,8.69,73688.0,-4.93,-5.77,-5.77,0,*5A
1514232517.58,353,8.63,73682.0,-4.91,-5.77,-5.77,0,*59
1514232518.84,354,8.69,73682.5,-4.93,-5.77,-5.77,0,*5C
1514232520.08,355,8.69,73688.8,-4.91,-5.77,-5.73,0,*5B
1514232521.31,356,8.63,73682.3,-4.91,-5.77,-5.73,0,*58
1514232522.57,357,8.69,73688.8,-4.93,-5.85,-5.77,0,*52
1514232523.83,358,8.69,73690.3,-4.93,-5.77,-5.77,0,*50
1514232525.09,359,8.63,73688.0,-4.93,-5.85,-5.77,0,*5C
1514232526.33,360,8.63,73682.0,-4.91,-5.77,-5.77,0,*59
1514232527.57,361,8.63,73674.8,-4.91,-5.85,-5.77,0,*55
1514232528.83,362,8.69,73678.3,-4.93,-5.85,-5.77,0,*54